| time (UTC) | temp F | wind direction | speed MPH | gust MPH | rain 1hr in | rain 24hr in | rain mn in | humidity % | barometer mb |
| 20260831040204 | 70 | 249 | 1.0 | 5.0 | 0.00 | 0.03 | 0.03 | 90 | |
| 20260831035204 | 69 | 243 | 0.0 | 3.0 | 0.00 | 0.03 | 0.03 | 91 | |
| 20260831034205 | 69 | 247 | 2.0 | 3.0 | 0.00 | 0.03 | 0.03 | 91 | |
| 20260831033204 | 70 | 229 | 1.0 | 6.0 | 0.00 | 0.03 | 0.03 | 91 | |
| 20260831032203 | 69 | 191 | 0.0 | 7.0 | 0.00 | 0.03 | 0.03 | 92 | |
| 20260831031204 | 69 | 199 | 1.0 | 6.0 | 0.00 | 0.03 | 0.03 | 92 | |
| 20260831030207 | 69 | 225 | 1.0 | 6.0 | 0.00 | 0.03 | 0.03 | 93 | |
| 20260831025204 | 69 | 236 | 1.0 | 6.0 | 0.00 | 0.03 | 0.03 | 94 | |
| 20260831024204 | 69 | 202 | 0.0 | 2.0 | 0.00 | 0.03 | 0.03 | 94 | |
| 20260831023204 | 69 | 223 | 1.0 | 6.0 | 0.00 | 0.03 | 0.03 | 94 | |
| 20260831022204 | 69 | 242 | 2.0 | 6.0 | 0.01 | 0.03 | 0.03 | 94 | |
| 20260831021204 | 69 | 181 | 1.0 | 5.0 | 0.01 | 0.03 | 0.03 | 94 | |
| 20260831020204 | 69 | 23 | 0.0 | 1.0 | 0.01 | 0.03 | 0.03 | 93 | |
| 20260831015205 | 69 | 43 | 0.0 | 2.0 | 0.01 | 0.03 | 0.03 | 93 | |
| 20260831014205 | 69 | 161 | 1.0 | 5.0 | 0.01 | 0.03 | 0.03 | 93 | |
| 20260831013204 | 69 | 167 | 0.0 | 7.0 | 0.01 | 0.03 | 0.03 | 93 | |
| 20260831012204 | 70 | 239 | 3.0 | 6.0 | 0.00 | 0.02 | 0.02 | 93 | |
| 20260831011204 | 70 | 216 | 1.0 | 7.0 | 0.01 | 0.02 | 0.02 | 92 | |
| 20260831010204 | 70 | 233 | 1.0 | 7.0 | 0.01 | 0.02 | 0.02 | 92 | |
| 20260831005203 | 70 | 236 | 5.0 | 8.0 | 0.01 | 0.02 | 0.02 | 92 | |
| 20260831004204 | 70 | 258 | 2.0 | 8.0 | 0.01 | 0.02 | 0.02 | 92 | |
| 20260831003204 | 70 | 236 | 3.0 | 12.0 | 0.01 | 0.02 | 0.02 | 92 | |
| 20260831002204 | 70 | 226 | 4.0 | 10.0 | 0.01 | 0.02 | 0.02 | 92 | |
| 20260831001204 | 70 | 233 | 2.0 | 7.0 | 0.00 | 0.01 | 0.01 | 90 | |
| 20260831000205 | 71 | 229 | 1.0 | 5.0 | 0.00 | 0.01 | 0.01 | 89 | |
| 20260830235203 | 71 | 283 | 1.0 | 10.0 | 0.00 | 0.01 | 0.01 | 89 | |
| 20260830234204 | 71 | 243 | 3.0 | 9.0 | 0.00 | 0.01 | 0.01 | 90 | |
| 20260830233204 | 71 | 262 | 2.0 | 8.0 | 0.00 | 0.01 | 0.01 | 90 | |
| 20260830232204 | 71 | 244 | 2.0 | 7.0 | 0.00 | 0.01 | 0.01 | 90 | |
| 20260830231204 | 71 | 227 | 1.0 | 6.0 | 0.00 | 0.01 | 0.01 | 89 | |
| 20260830230207 | 72 | 236 | 2.0 | 7.0 | 0.00 | 0.01 | 0.01 | 89 | |
| 20260830225204 | 72 | 241 | 2.0 | 6.0 | 0.00 | 0.01 | 0.01 | 88 | |
| 20260830224204 | 72 | 223 | 2.0 | 8.0 | 0.00 | 0.01 | 0.01 | 87 | |
| 20260830223204 | 72 | 221 | 2.0 | 8.0 | 0.00 | 0.01 | 0.01 | 87 | |
| 20260830222204 | 72 | 244 | 3.0 | 8.0 | 0.00 | 0.01 | 0.01 | 89 | |
| 20260830221204 | 72 | 236 | 3.0 | 9.0 | 0.00 | 0.01 | 0.01 | 89 | |
| 20260830220204 | 71 | 240 | 4.0 | 9.0 | 0.00 | 0.01 | 0.01 | 90 | |
| 20260830215204 | 72 | 248 | 2.0 | 9.0 | 0.00 | 0.01 | 0.01 | 90 | |
| 20260830214204 | 71 | 231 | 3.0 | 9.0 | 0.00 | 0.01 | 0.01 | 90 | |
| 20260830213204 | 71 | 233 | 3.0 | 7.0 | 0.00 | 0.01 | 0.01 | 90 | |
| 20260830212204 | 71 | 245 | 3.0 | 6.0 | 0.00 | 0.01 | 0.01 | 90 | |
| 20260830211204 | 71 | 244 | 2.0 | 7.0 | 0.00 | 0.01 | 0.01 | 90 | |
| 20260830210204 | 72 | 253 | 2.0 | 6.0 | 0.00 | 0.01 | 0.01 | 90 | |
| 20260830205204 | 72 | 270 | 2.0 | 5.0 | 0.00 | 0.01 | 0.01 | 90 | |
| 20260830204204 | 71 | 252 | 3.0 | 9.0 | 0.00 | 0.01 | 0.01 | 90 | |
| 20260830203204 | 71 | 237 | 2.0 | 7.0 | 0.00 | 0.01 | 0.01 | 91 | |
| 20260830202204 | 71 | 242 | 2.0 | 6.0 | 0.00 | 0.01 | 0.01 | 91 | |
| 20260830201204 | 70 | 222 | 2.0 | 6.0 | 0.00 | 0.01 | 0.01 | 91 | |
| 20260830200204 | 70 | 230 | 2.0 | 8.0 | 0.00 | 0.02 | 0.01 | 91 | |
| 20260830195204 | 70 | 212 | 3.0 | 8.0 | 0.00 | 0.02 | 0.01 | 91 | |
| 20260830194204 | 70 | 200 | 2.0 | 5.0 | 0.00 | 0.02 | 0.01 | 91 | |
| 20260830193204 | 71 | 232 | 2.0 | 5.0 | 0.01 | 0.02 | 0.01 | 90 | |
| 20260830192204 | 71 | 244 | 1.0 | 3.0 | 0.01 | 0.02 | 0.01 | 90 | |
| 20260830191204 | 71 | 208 | 0.0 | 3.0 | 0.01 | 0.02 | 0.01 | 88 | |
| 20260830190208 | 71 | 271 | 2.0 | 5.0 | 0.01 | 0.02 | 0.01 | 87 | |
| 20260830185204 | 71 | 247 | 2.0 | 6.0 | 0.01 | 0.02 | 0.01 | 88 | |
| 20260830184204 | 72 | 224 | 2.0 | 10.0 | 0.01 | 0.02 | 0.01 | 86 | |
| 20260830183204 | 73 | 250 | 5.0 | 13.0 | 0.00 | 0.01 | 0.00 | 80 | |
| 20260830182204 | 75 | 253 | 5.0 | 12.0 | 0.00 | 0.01 | 0.00 | 71 | |
| 20260830181203 | 75 | 249 | 5.0 | 13.0 | 0.00 | 0.01 | 0.00 | 70 | |
| 20260830180204 | 75 | 223 | 3.0 | 9.0 | 0.00 | 0.01 | 0.00 | 72 | |
| 20260830175204 | 75 | 248 | 3.0 | 9.0 | 0.00 | 0.01 | 0.00 | 72 | |
| 20260830174204 | 76 | 218 | 2.0 | 12.0 | 0.00 | 0.01 | 0.00 | 68 | |
| 20260830173204 | 77 | 237 | 4.0 | 13.0 | 0.00 | 0.01 | 0.00 | 64 | |
| 20260830172203 | 77 | 255 | 5.0 | 16.0 | 0.00 | 0.01 | 0.00 | 62 | |
| 20260830171204 | 78 | 270 | 4.0 | 14.0 | 0.00 | 0.01 | 0.00 | 60 | |
| 20260830170204 | 79 | 225 | 6.0 | 14.0 | 0.00 | 0.01 | 0.00 | 59 | |
| 20260830165204 | 80 | 251 | 6.0 | 13.0 | 0.00 | 0.01 | 0.00 | 56 | |
| 20260830164204 | 81 | 239 | 6.0 | 13.0 | 0.00 | 0.01 | 0.00 | 56 | |
| 20260830163204 | 80 | 240 | 4.0 | 12.0 | 0.00 | 0.01 | 0.00 | 57 | |
| 20260830162204 | 80 | 239 | 6.0 | 13.0 | 0.00 | 0.01 | 0.00 | 57 | |
| 20260830161204 | 79 | 255 | 5.0 | 22.0 | 0.00 | 0.01 | 0.00 | 59 | |
| 20260830160204 | 79 | 235 | 5.0 | 15.0 | 0.00 | 0.01 | 0.00 | 59 | |
| 20260830155204 | 79 | 249 | 6.0 | 15.0 | 0.00 | 0.01 | 0.00 | 60 | |
| 20260830154204 | 78 | 201 | 5.0 | 13.0 | 0.00 | 0.01 | 0.00 | 61 | |
| 20260830153204 | 78 | 260 | 6.0 | 14.0 | 0.00 | 0.01 | 0.00 | 61 | |
| 20260830152204 | 78 | 242 | 6.0 | 14.0 | 0.00 | 0.01 | 0.00 | 60 | |
| 20260830151204 | 78 | 225 | 5.0 | 12.0 | 0.00 | 0.01 | 0.00 | 62 | |
| 20260830150207 | 77 | 234 | 4.0 | 12.0 | 0.00 | 0.01 | 0.00 | 63 | |
| 20260830145204 | 76 | 217 | 6.0 | 14.0 | 0.00 | 0.01 | 0.00 | 62 | |
| 20260830144203 | 76 | 278 | 4.0 | 14.0 | 0.00 | 0.01 | 0.00 | 64 | |
| 20260830143203 | 76 | 235 | 7.0 | 12.0 | 0.00 | 0.01 | 0.00 | 64 | |
| 20260830142204 | 76 | 258 | 6.0 | 12.0 | 0.00 | 0.01 | 0.00 | 65 | |
| 20260830141204 | 75 | 264 | 5.0 | 14.0 | 0.00 | 0.01 | 0.00 | 66 | |
| 20260830140203 | 75 | 239 | 3.0 | 14.0 | 0.00 | 0.01 | 0.00 | 67 | |
| 20260830135203 | 74 | 244 | 5.0 | 14.0 | 0.00 | 0.01 | 0.00 | 66 | |
| 20260830134204 | 74 | 224 | 3.0 | 9.0 | 0.00 | 0.01 | 0.00 | 68 | |
| 20260830133204 | 73 | 233 | 2.0 | 7.0 | 0.00 | 0.01 | 0.00 | 69 | |
| 20260830132204 | 73 | 221 | 3.0 | 8.0 | 0.00 | 0.01 | 0.00 | 69 | |
| 20260830131204 | 73 | 245 | 3.0 | 10.0 | 0.00 | 0.01 | 0.00 | 69 | |
| 20260830130204 | 72 | 236 | 5.0 | 10.0 | 0.00 | 0.01 | 0.00 | 70 | |
| 20260830125204 | 72 | 240 | 3.0 | 12.0 | 0.00 | 0.01 | 0.00 | 72 | |
| 20260830124205 | 71 | 233 | 4.0 | 10.0 | 0.00 | 0.01 | 0.00 | 72 | |
| 20260830123204 | 71 | 223 | 2.0 | 9.0 | 0.00 | 0.01 | 0.00 | 73 | |
| 20260830122204 | 71 | 243 | 1.0 | 6.0 | 0.00 | 0.01 | 0.00 | 73 | |
| 20260830121205 | 71 | 241 | 2.0 | 6.0 | 0.00 | 0.01 | 0.00 | 72 | |
| 20260830120204 | 71 | 257 | 4.0 | 9.0 | 0.00 | 0.01 | 0.00 | 72 | |
| 20260830115204 | 71 | 255 | 2.0 | 9.0 | 0.00 | 0.01 | 0.00 | 72 | |
| 20260830114204 | 71 | 253 | 3.0 | 8.0 | 0.00 | 0.01 | 0.00 | 73 | |
| 20260830113204 | 70 | 243 | 3.0 | 8.0 | 0.00 | 0.01 | 0.00 | 73 | |
| 20260830112204 | 70 | 251 | 3.0 | 9.0 | 0.00 | 0.01 | 0.00 | 74 | |
| 20260830111204 | 70 | 239 | 2.0 | 10.0 | 0.00 | 0.01 | 0.00 | 74 | |
| 20260830110208 | 70 | 224 | 2.0 | 10.0 | 0.00 | 0.01 | 0.00 | 75 | |
| 20260830105204 | 70 | 247 | 2.0 | 6.0 | 0.00 | 0.01 | 0.00 | 76 | |
| 20260830104205 | 70 | 256 | 3.0 | 10.0 | 0.00 | 0.01 | 0.00 | 77 | |
| 20260830103203 | 69 | 233 | 3.0 | 14.0 | 0.00 | 0.01 | 0.00 | 77 | |
| 20260830102204 | 69 | 213 | 3.0 | 8.0 | 0.00 | 0.01 | 0.00 | 78 | |
| 20260830101204 | 69 | 231 | 4.0 | 8.0 | 0.00 | 0.01 | 0.00 | 78 | |
| 20260830100204 | 69 | 254 | 4.0 | 8.0 | 0.00 | 0.01 | 0.00 | 78 | |
| 20260830095204 | 69 | 245 | 3.0 | 7.0 | 0.00 | 0.01 | 0.00 | 78 | |
| 20260830094204 | 69 | 262 | 4.0 | 8.0 | 0.00 | 0.01 | 0.00 | 78 | |
| 20260830093204 | 70 | 225 | 2.0 | 9.0 | 0.00 | 0.01 | 0.00 | 78 | |
| 20260830092204 | 70 | 192 | 1.0 | 9.0 | 0.00 | 0.01 | 0.00 | 78 | |
| 20260830091204 | 70 | 250 | 2.0 | 9.0 | 0.00 | 0.01 | 0.00 | 78 | |
| 20260830090205 | 70 | 227 | 3.0 | 8.0 | 0.00 | 0.01 | 0.00 | 78 | |
| 20260830085204 | 70 | 245 | 3.0 | 8.0 | 0.00 | 0.01 | 0.00 | 78 | |
| 20260830084204 | 70 | 249 | 2.0 | 8.0 | 0.00 | 0.01 | 0.00 | 78 | |
| 20260830083204 | 70 | 227 | 3.0 | 7.0 | 0.00 | 0.01 | 0.00 | 78 | |
| 20260830082204 | 70 | 231 | 4.0 | 8.0 | 0.00 | 0.01 | 0.00 | 77 | |
| 20260830081203 | 70 | 226 | 1.0 | 7.0 | 0.00 | 0.01 | 0.00 | 78 | |
| 20260830080204 | 70 | 226 | 3.0 | 9.0 | 0.00 | 0.01 | 0.00 | 78 | |
| 20260830075204 | 70 | 250 | 2.0 | 6.0 | 0.00 | 0.01 | 0.00 | 78 | |
| 20260830074204 | 70 | 223 | 1.0 | 7.0 | 0.00 | 0.01 | 0.00 | 78 | |
| 20260830073204 | 70 | 239 | 2.0 | 9.0 | 0.00 | 0.01 | 0.00 | 77 | |
| 20260830072204 | 70 | 243 | 3.0 | 8.0 | 0.00 | 0.01 | 0.00 | 78 | |
| 20260830071208 | 70 | 233 | 3.0 | 8.0 | 0.00 | 0.01 | 0.00 | 78 | |
| 20260830070216 | 70 | 239 | 3.0 | 9.0 | 0.00 | 0.01 | 0.00 | 79 | |
| 20260830065204 | 70 | 225 | 2.0 | 9.0 | 0.00 | 0.01 | 0.00 | 80 | |
| 20260830064204 | 69 | 242 | 3.0 | 10.0 | 0.00 | 0.01 | 0.00 | 82 | |
| 20260830063204 | 69 | 241 | 3.0 | 8.0 | 0.00 | 0.01 | 0.00 | 83 | |
| 20260830062204 | 69 | 182 | 2.0 | 8.0 | 0.00 | 0.01 | 0.00 | 84 | |
| 20260830061204 | 69 | 233 | 3.0 | 8.0 | 0.00 | 0.01 | 0.00 | 85 | |
| 20260830060204 | 70 | 204 | 3.0 | 7.0 | 0.00 | 0.01 | 0.00 | 84 | |
| 20260830055204 | 70 | 242 | 3.0 | 9.0 | 0.00 | 0.01 | 0.00 | 81 | |
| 20260830054203 | 71 | 229 | 3.0 | 12.0 | 0.00 | 0.01 | 0.00 | 79 | |
| 20260830053204 | 71 | 226 | 3.0 | 12.0 | 0.00 | 0.01 | 0.00 | 78 | |
| 20260830052204 | 71 | 241 | 5.0 | 13.0 | 0.00 | 0.01 | 0.00 | 77 | |
| 20260830051204 | 70 | 226 | 3.0 | 10.0 | 0.00 | 0.01 | 0.00 | 78 | |
| 20260830050205 | 70 | 225 | 5.0 | 9.0 | 0.00 | 0.01 | 0.00 | 79 | |
| 20260830045205 | 70 | 245 | 2.0 | 8.0 | 0.00 | 0.01 | 0.01 | 80 | |
| 20260830044204 | 70 | 147 | 2.0 | 6.0 | 0.00 | 0.01 | 0.01 | 82 | |
| 20260830043204 | 70 | 176 | 3.0 | 8.0 | 0.00 | 0.01 | 0.01 | 82 | |
| 20260830042204 | 69 | 127 | 2.0 | 7.0 | 0.00 | 0.01 | 0.01 | 83 | |
| 20260830041204 | 69 | 247 | 2.0 | 5.0 | 0.00 | 0.01 | 0.01 | 83 |